User: anonymous   Login
Location: Chatham
(39.6760°N, 89.7040°W)
Time: 19:02:47
(UTC-05:00)
Language:

NOSS 3-1 (C) - Orbit

View from above orbital plane
View from above orbital plane
View from above satellite
View from above satellite

Ground track
Ground track

The orbit data is extracted from the following two-line orbital elements,

1 26907U 01040C   16271.09677627 0.00000010  00000-0  12562-4 0    04
2 26907  63.4128 340.9564 0349000 358.8361   1.1639 13.41255878    05
Epoch (UTC): 27 September 2016 02:19:21
Eccentricity: 0.0349000
inclination: 63.4128°
perigee height: 843 km
apogee height: 1366 km
right ascension of ascending node: 340.9564°
argument of perigee: 358.8361°
revolutions per day: 13.41255878
mean anomaly at epoch: 1.1639°
orbit number at epoch: 0

The dashed part of the orbit path shows where the satellite is in the earth's shadow,  

DLR